User: anonymous
Location: Gipe Farm
(40.9466°N, 95.5370°W)
Time: 15:56:30
(UTC-05:00)
Language:

Cosmos 1842 - Orbit

View from above orbital plane
View from above orbital plane
View from above satellite
View from above satellite

Ground track
Ground track

The orbit data is extracted from the following two-line orbital elements,

1 17911U 87038A   14109.12601022  .00006653  00000-0  45359-3 0  4538
2 17911 082.4922 241.4854 0013032 216.3628 143.6715 15.06022230467570
Epoch (UTC): 19 April 2014 03:01:27
Eccentricity: 0.0013032
inclination: 82.4922°
perigee height: 539 km
apogee height: 557 km
right ascension of ascending node: 241.4854°
argument of perigee: 216.3628°
revolutions per day: 15.06022230
mean anomaly at epoch: 143.6715°
orbit number at epoch: 46757

The dashed part of the orbit path shows where the satellite is in the earth's shadow,  

DLR